TimeEDT,TemperatureF,Dew PointF,Humidity,Sea Level PressureIn,VisibilityMPH,Wind Direction,Wind SpeedMPH,Gust SpeedMPH,PrecipitationIn,Events,Conditions,WindDirDegrees,DateUTC
12:54 AM,54.0,50.0,86,30.07,10.0,SW,3.5,-,N/A,,Clear,220,2013-09-20 04:54:00
1:54 AM,54.0,48.9,83,30.07,10.0,Calm,Calm,-,N/A,,Clear,0,2013-09-20 05:54:00
2:54 AM,53.1,48.9,86,30.07,10.0,Calm,Calm,-,N/A,,Clear,0,2013-09-20 06:54:00
3:54 AM,53.1,50.0,89,30.06,10.0,Calm,Calm,-,N/A,,Clear,0,2013-09-20 07:54:00
4:54 AM,52.0,48.9,89,30.06,10.0,SW,3.5,-,N/A,,Clear,220,2013-09-20 08:54:00
5:54 AM,50.0,46.9,89,30.07,10.0,Calm,Calm,-,N/A,,Clear,0,2013-09-20 09:54:00
6:54 AM,51.1,48.0,89,30.09,10.0,SSW,3.5,-,N/A,,Clear,200,2013-09-20 10:54:00
7:54 AM,55.0,51.1,86,30.09,10.0,Calm,Calm,-,N/A,,Clear,0,2013-09-20 11:54:00
8:54 AM,61.0,53.1,75,30.10,10.0,Calm,Calm,-,N/A,,Clear,0,2013-09-20 12:54:00
9:54 AM,66.9,53.1,61,30.11,10.0,NNE,5.8,-,N/A,,Clear,20,2013-09-20 13:54:00
10:54 AM,72.0,53.1,51,30.11,10.0,Variable,3.5,-,N/A,,Clear,0,2013-09-20 14:54:00
11:54 AM,73.9,54.0,50,30.09,10.0,NE,3.5,-,N/A,,Clear,50,2013-09-20 15:54:00
12:54 PM,75.9,55.0,48,30.09,10.0,Variable,3.5,-,N/A,,Clear,0,2013-09-20 16:54:00
1:54 PM,77.0,57.0,50,30.06,10.0,ENE,6.9,-,N/A,,Clear,60,2013-09-20 17:54:00
2:54 PM,79.0,57.0,47,30.03,10.0,East,6.9,-,N/A,,Clear,80,2013-09-20 18:54:00
3:54 PM,79.0,54.0,42,30.03,10.0,Variable,5.8,-,N/A,,Clear,0,2013-09-20 19:54:00
4:54 PM,78.1,55.9,46,30.01,10.0,ESE,6.9,-,N/A,,Clear,120,2013-09-20 20:54:00
5:54 PM,75.0,55.0,50,30.02,10.0,ESE,3.5,-,N/A,,Clear,120,2013-09-20 21:54:00
6:54 PM,69.1,53.1,57,30.03,10.0,ESE,3.5,-,N/A,,Clear,110,2013-09-20 22:54:00
7:54 PM,63.0,55.0,75,30.05,10.0,NE,3.5,-,N/A,,Clear,40,2013-09-20 23:54:00
8:54 PM,64.0,54.0,70,30.04,10.0,SE,3.5,-,N/A,,Clear,140,2013-09-21 00:54:00
9:54 PM,62.1,54.0,75,30.04,10.0,ESE,3.5,-,N/A,,Clear,120,2013-09-21 01:54:00
10:54 PM,61.0,54.0,78,30.03,10.0,Calm,Calm,-,N/A,,Clear,0,2013-09-21 02:54:00
11:54 PM,57.9,52.0,81,30.03,10.0,Calm,Calm,-,N/A,,Clear,0,2013-09-21 03:54:00